owner,sensor,date,latitude,longitude,vertical_datum,wind_speed,wind_to_direction,wind_speed_of_gust,qcFlag 
COMPS,ioos:station:USF.COMPS:FHP:1,2019-03-01T00:00:00Z,28.1530,-82.8010,10.0,1.39,291.53,2.05,'1111122,1111122,1111122' 
COMPS,ioos:station:USF.COMPS:FHP:1,2019-03-01T00:06:00Z,28.1530,-82.8010,10.0,1.82,285.66,2.74,'1111122,1111122,1111122' 
COMPS,ioos:station:USF.COMPS:FHP:1,2019-03-01T00:12:00Z,28.1530,-82.8010,10.0,1.78,282.97,2.74,'1111122,1111122,1111122' 
COMPS,ioos:station:USF.COMPS:FHP:1,2019-03-01T00:18:00Z,28.1530,-82.8010,10.0,1.7,292.24,2.64,'1111122,1111122,1111122' 
COMPS,ioos:station:USF.COMPS:FHP:1,2019-03-01T00:24:00Z,28.1530,-82.8010,10.0,1.68,293.5,2.54,'1111122,1111122,1111122' 
COMPS,ioos:station:USF.COMPS:FHP:1,2019-03-01T00:30:00Z,28.1530,-82.8010,10.0,1.54,290.71,2.35,'1111122,1111122,1111122' 
COMPS,ioos:station:USF.COMPS:FHP:1,2019-03-01T00:36:00Z,28.1530,-82.8010,10.0,1.91,290.15,2.54,'1111122,1111122,1111122' 
COMPS,ioos:station:USF.COMPS:FHP:1,2019-03-01T00:42:00Z,28.1530,-82.8010,10.0,1.75,287.0,2.54,'1111122,1111122,1111122' 
COMPS,ioos:station:USF.COMPS:FHP:1,2019-03-01T00:48:00Z,28.1530,-82.8010,10.0,1.88,293.62,2.93,'1111122,1111122,1111122' 
COMPS,ioos:station:USF.COMPS:FHP:1,2019-03-01T00:54:00Z,28.1530,-82.8010,10.0,2.01,293.5,2.74,'1111122,1111122,1111122' 
COMPS,ioos:station:USF.COMPS:FHP:1,2019-03-01T01:00:00Z,28.1530,-82.8010,10.0,2.45,283.55,3.52,'1111122,1111122,1111122' 
COMPS,ioos:station:USF.COMPS:FHP:1,2019-03-01T01:06:00Z,28.1530,-82.8010,10.0,2.32,295.24,3.03,'1111122,1111122,1111122' 
COMPS,ioos:station:USF.COMPS:FHP:1,2019-03-01T01:12:00Z,28.1530,-82.8010,10.0,2.59,291.62,3.52,'1111122,1111122,1111122' 
COMPS,ioos:station:USF.COMPS:FHP:1,2019-03-01T01:18:00Z,28.1530,-82.8010,10.0,2.86,291.48,3.72,'1111122,1111122,1111122' 
COMPS,ioos:station:USF.COMPS:FHP:1,2019-03-01T01:24:00Z,28.1530,-82.8010,10.0,2.82,296.49,3.62,'1111122,1111122,1111122' 
COMPS,ioos:station:USF.COMPS:FHP:1,2019-03-01T01:30:00Z,28.1530,-82.8010,10.0,2.78,294.43,3.82,'1111122,1111122,1111122' 
COMPS,ioos:station:USF.COMPS:FHP:1,2019-03-01T01:36:00Z,28.1530,-82.8010,10.0,2.73,296.14,3.62,'1111122,1111122,1111122' 
COMPS,ioos:station:USF.COMPS:FHP:1,2019-03-01T01:42:00Z,28.1530,-82.8010,10.0,2.7,294.33,3.82,'1111122,1111122,1111122' 
COMPS,ioos:station:USF.COMPS:FHP:1,2019-03-01T01:48:00Z,28.1530,-82.8010,10.0,2.7,291.63,3.72,'1111122,1111122,1111122' 
COMPS,ioos:station:USF.COMPS:FHP:1,2019-03-01T01:54:00Z,28.1530,-82.8010,10.0,3.19,288.17,3.91,'1111122,1111122,1111122' 
COMPS,ioos:station:USF.COMPS:FHP:1,2019-03-01T02:00:00Z,28.1530,-82.8010,10.0,2.93,289.95,3.82,'1111122,1111122,1111122' 
COMPS,ioos:station:USF.COMPS:FHP:1,2019-03-01T02:06:00Z,28.1530,-82.8010,10.0,3.01,291.95,3.82,'1111122,1111122,1111122' 
COMPS,ioos:station:USF.COMPS:FHP:1,2019-03-01T02:12:00Z,28.1530,-82.8010,10.0,3.08,292.62,3.91,'1111122,1111122,1111122' 
COMPS,ioos:station:USF.COMPS:FHP:1,2019-03-01T02:18:00Z,28.1530,-82.8010,10.0,2.95,289.42,3.52,'1111122,1111122,1111122' 
COMPS,ioos:station:USF.COMPS:FHP:1,2019-03-01T02:24:00Z,28.1530,-82.8010,10.0,2.39,290.89,3.52,'1111122,1111122,1111122' 
COMPS,ioos:station:USF.COMPS:FHP:1,2019-03-01T02:30:00Z,28.1530,-82.8010,10.0,2.13,295.61,3.23,'1111122,1111122,1111122' 
COMPS,ioos:station:USF.COMPS:FHP:1,2019-03-01T02:36:00Z,28.1530,-82.8010,10.0,1.56,295.93,2.25,'1111122,1111122,1111122' 
COMPS,ioos:station:USF.COMPS:FHP:1,2019-03-01T02:42:00Z,28.1530,-82.8010,10.0,1.53,298.83,2.25,'1111122,1111122,1111122' 
COMPS,ioos:station:USF.COMPS:FHP:1,2019-03-01T02:48:00Z,28.1530,-82.8010,10.0,1.75,308.07,2.74,'1111122,1111122,1111122' 
COMPS,ioos:station:USF.COMPS:FHP:1,2019-03-01T02:54:00Z,28.1530,-82.8010,10.0,1.44,310.21,2.05,'1111122,1111122,1111122' 
COMPS,ioos:station:USF.COMPS:FHP:1,2019-03-01T03:00:00Z,28.1530,-82.8010,10.0,1.26,315.29,2.15,'1111122,1111122,1111122' 
COMPS,ioos:station:USF.COMPS:FHP:1,2019-03-01T03:06:00Z,28.1530,-82.8010,10.0,1.51,317.92,2.15,'1111122,1111122,1111122' 
COMPS,ioos:station:USF.COMPS:FHP:1,2019-03-01T03:12:00Z,28.1530,-82.8010,10.0,1.26,322.23,2.35,'1111122,1111122,1111122' 
COMPS,ioos:station:USF.COMPS:FHP:1,2019-03-01T03:18:00Z,28.1530,-82.8010,10.0,1.75,316.8,2.25,'1111122,1111122,1111122' 
COMPS,ioos:station:USF.COMPS:FHP:1,2019-03-01T03:24:00Z,28.1530,-82.8010,10.0,1.93,316.7,2.45,'1111122,1111122,1111122' 
COMPS,ioos:station:USF.COMPS:FHP:1,2019-03-01T03:30:00Z,28.1530,-82.8010,10.0,1.98,321.45,2.74,'1111122,1111122,1111122' 
COMPS,ioos:station:USF.COMPS:FHP:1,2019-03-01T03:36:00Z,28.1530,-82.8010,10.0,1.92,317.75,2.54,'1111122,1111122,1111122' 
COMPS,ioos:station:USF.COMPS:FHP:1,2019-03-01T03:42:00Z,28.1530,-82.8010,10.0,1.87,325.07,2.64,'1111122,1111122,1111122' 
COMPS,ioos:station:USF.COMPS:FHP:1,2019-03-01T03:48:00Z,28.1530,-82.8010,10.0,1.82,321.36,2.54,'1111122,1111122,1111122' 
COMPS,ioos:station:USF.COMPS:FHP:1,2019-03-01T03:54:00Z,28.1530,-82.8010,10.0,1.09,314.32,2.25,'1111122,1111122,1111122' 
COMPS,ioos:station:USF.COMPS:FHP:1,2019-03-01T04:00:00Z,28.1530,-82.8010,10.0,0.56,305.85,1.76,'1111122,1111122,1111122' 
COMPS,ioos:station:USF.COMPS:FHP:1,2019-03-01T04:06:00Z,28.1530,-82.8010,10.0,0.09,311.35,0.09,'1111122,1111122,1111122' 
COMPS,ioos:station:USF.COMPS:FHP:1,2019-03-01T04:12:00Z,28.1530,-82.8010,10.0,0.09,288.9,0.09,'1111122,1111122,1111122' 
COMPS,ioos:station:USF.COMPS:FHP:1,2019-03-01T04:18:00Z,28.1530,-82.8010,10.0,0.09,280.62,0.09,'1111122,1111122,1111122' 
COMPS,ioos:station:USF.COMPS:FHP:1,2019-03-01T04:24:00Z,28.1530,-82.8010,10.0,0.09,280.06,0.09,'1111122,1111122,1111122' 
COMPS,ioos:station:USF.COMPS:FHP:1,2019-03-01T04:30:00Z,28.1530,-82.8010,10.0,0.09,258.86,0.09,'1111122,1111122,1111122' 
COMPS,ioos:station:USF.COMPS:FHP:1,2019-03-01T04:36:00Z,28.1530,-82.8010,10.0,0.09,212.67,0.09,'1111122,1111122,1111122' 
COMPS,ioos:station:USF.COMPS:FHP:1,2019-03-01T04:42:00Z,28.1530,-82.8010,10.0,0.09,222.88,0.09,'1111122,1111122,1111122' 
COMPS,ioos:station:USF.COMPS:FHP:1,2019-03-01T04:48:00Z,28.1530,-82.8010,10.0,0.09,207.55,0.09,'1111122,1111122,1111122' 
COMPS,ioos:station:USF.COMPS:FHP:1,2019-03-01T04:54:00Z,28.1530,-82.8010,10.0,0.09,199.09,0.09,'1111122,1111122,1111122' 
COMPS,ioos:station:USF.COMPS:FHP:1,2019-03-01T05:00:00Z,28.1530,-82.8010,10.0,0.09,202.58,0.09,'1111122,1111122,1111122' 
COMPS,ioos:station:USF.COMPS:FHP:1,2019-03-01T05:06:00Z,28.1530,-82.8010,10.0,0.09,200.71,0.09,'1111122,1111122,1111122' 
COMPS,ioos:station:USF.COMPS:FHP:1,2019-03-01T05:12:00Z,28.1530,-82.8010,10.0,0.09,198.16,0.09,'1111122,1111122,1111122' 
COMPS,ioos:station:USF.COMPS:FHP:1,2019-03-01T05:18:00Z,28.1530,-82.8010,10.0,0.1,207.37,0.19,'1111122,1111122,1111122' 
COMPS,ioos:station:USF.COMPS:FHP:1,2019-03-01T05:24:00Z,28.1530,-82.8010,10.0,0.09,193.54,0.09,'1111122,1111122,1111122' 
COMPS,ioos:station:USF.COMPS:FHP:1,2019-03-01T05:30:00Z,28.1530,-82.8010,10.0,0.09,189.15,0.09,'1111122,1111122,1111122' 
COMPS,ioos:station:USF.COMPS:FHP:1,2019-03-01T05:36:00Z,28.1530,-82.8010,10.0,0.09,197.24,0.09,'1111122,1111122,1111122' 
COMPS,ioos:station:USF.COMPS:FHP:1,2019-03-01T05:42:00Z,28.1530,-82.8010,10.0,0.09,206.66,0.09,'1111122,1111122,1111122' 
COMPS,ioos:station:USF.COMPS:FHP:1,2019-03-01T05:48:00Z,28.1530,-82.8010,10.0,0.09,205.73,0.09,'1111122,1111122,1111122' 
COMPS,ioos:station:USF.COMPS:FHP:1,2019-03-01T05:54:00Z,28.1530,-82.8010,10.0,0.09,217.87,0.09,'1111122,1111122,1111122' 
COMPS,ioos:station:USF.COMPS:FHP:1,2019-03-01T06:00:00Z,28.1530,-82.8010,10.0,0.09,222.15,0.09,'1111122,1111122,1111122' 
COMPS,ioos:station:USF.COMPS:FHP:1,2019-03-01T06:06:00Z,28.1530,-82.8010,10.0,1.28,226.31,1.86,'1111122,1111122,1111122' 
COMPS,ioos:station:USF.COMPS:FHP:1,2019-03-01T06:12:00Z,28.1530,-82.8010,10.0,1.62,230.41,2.05,'1111122,1111122,1111122' 
COMPS,ioos:station:USF.COMPS:FHP:1,2019-03-01T06:18:00Z,28.1530,-82.8010,10.0,1.59,231.51,1.95,'1111122,1111122,1111122' 
COMPS,ioos:station:USF.COMPS:FHP:1,2019-03-01T06:24:00Z,28.1530,-82.8010,10.0,1.8,231.21,2.45,'1111122,1111122,1111122' 
COMPS,ioos:station:USF.COMPS:FHP:1,2019-03-01T06:30:00Z,28.1530,-82.8010,10.0,1.38,238.46,1.86,'1111122,1111122,1111122' 
COMPS,ioos:station:USF.COMPS:FHP:1,2019-03-01T06:36:00Z,28.1530,-82.8010,10.0,1.47,253.28,2.05,'1111122,1111122,1111122' 
COMPS,ioos:station:USF.COMPS:FHP:1,2019-03-01T06:42:00Z,28.1530,-82.8010,10.0,1.8,260.75,2.54,'1111122,1111122,1111122' 
COMPS,ioos:station:USF.COMPS:FHP:1,2019-03-01T06:48:00Z,28.1530,-82.8010,10.0,1.77,265.26,2.25,'1111122,1111122,1111122' 
COMPS,ioos:station:USF.COMPS:FHP:1,2019-03-01T06:54:00Z,28.1530,-82.8010,10.0,1.93,269.58,2.45,'1111122,1111122,1111122' 
COMPS,ioos:station:USF.COMPS:FHP:1,2019-03-01T07:00:00Z,28.1530,-82.8010,10.0,2.36,274.86,3.13,'1111122,1111122,1111122' 
COMPS,ioos:station:USF.COMPS:FHP:1,2019-03-01T07:06:00Z,28.1530,-82.8010,10.0,2.02,275.81,2.64,'1111122,1111122,1111122' 
COMPS,ioos:station:USF.COMPS:FHP:1,2019-03-01T07:12:00Z,28.1530,-82.8010,10.0,2.22,269.37,2.84,'1111122,1111122,1111122' 
COMPS,ioos:station:USF.COMPS:FHP:1,2019-03-01T07:18:00Z,28.1530,-82.8010,10.0,1.79,273.7,2.45,'1111122,1111122,1111122' 
COMPS,ioos:station:USF.COMPS:FHP:1,2019-03-01T07:24:00Z,28.1530,-82.8010,10.0,1.56,268.89,1.86,'1111122,1111122,1111122' 
COMPS,ioos:station:USF.COMPS:FHP:1,2019-03-01T07:30:00Z,28.1530,-82.8010,10.0,1.69,254.85,2.05,'1111122,1111122,1111122' 
COMPS,ioos:station:USF.COMPS:FHP:1,2019-03-01T07:36:00Z,28.1530,-82.8010,10.0,1.78,248.36,2.45,'1111122,1111122,1111122' 
COMPS,ioos:station:USF.COMPS:FHP:1,2019-03-01T07:42:00Z,28.1530,-82.8010,10.0,1.93,254.59,2.35,'1111122,1111122,1111122' 
COMPS,ioos:station:USF.COMPS:FHP:1,2019-03-01T07:48:00Z,28.1530,-82.8010,10.0,2.24,256.14,2.74,'1111122,1111122,1111122' 
COMPS,ioos:station:USF.COMPS:FHP:1,2019-03-01T07:54:00Z,28.1530,-82.8010,10.0,2.56,251.11,2.93,'1111122,1111122,1111122' 
COMPS,ioos:station:USF.COMPS:FHP:1,2019-03-01T08:00:00Z,28.1530,-82.8010,10.0,2.54,251.51,2.93,'1111122,1111122,1111122' 
COMPS,ioos:station:USF.COMPS:FHP:1,2019-03-01T08:06:00Z,28.1530,-82.8010,10.0,2.8,260.16,3.42,'1111122,1111122,1111122' 
COMPS,ioos:station:USF.COMPS:FHP:1,2019-03-01T08:12:00Z,28.1530,-82.8010,10.0,2.69,251.27,3.13,'1111122,1111122,1111122' 
COMPS,ioos:station:USF.COMPS:FHP:1,2019-03-01T08:18:00Z,28.1530,-82.8010,10.0,2.53,250.72,3.03,'1111122,1111122,1111122' 
COMPS,ioos:station:USF.COMPS:FHP:1,2019-03-01T08:24:00Z,28.1530,-82.8010,10.0,1.89,261.39,2.64,'1111122,1111122,1111122' 
COMPS,ioos:station:USF.COMPS:FHP:1,2019-03-01T08:30:00Z,28.1530,-82.8010,10.0,0.89,280.49,1.66,'1111122,1111122,1111122' 
COMPS,ioos:station:USF.COMPS:FHP:1,2019-03-01T08:36:00Z,28.1530,-82.8010,10.0,0.16,273.98,1.37,'1111122,1111122,1111122' 
COMPS,ioos:station:USF.COMPS:FHP:1,2019-03-01T08:42:00Z,28.1530,-82.8010,10.0,1.69,277.18,2.45,'1111122,1111122,1111122' 
COMPS,ioos:station:USF.COMPS:FHP:1,2019-03-01T08:48:00Z,28.1530,-82.8010,10.0,1.78,279.2,2.35,'1111122,1111122,1111122' 
COMPS,ioos:station:USF.COMPS:FHP:1,2019-03-01T08:54:00Z,28.1530,-82.8010,10.0,1.57,285.24,2.15,'1111122,1111122,1111122' 
COMPS,ioos:station:USF.COMPS:FHP:1,2019-03-01T09:00:00Z,28.1530,-82.8010,10.0,0.85,290.86,1.86,'1111122,1111122,1111122' 
COMPS,ioos:station:USF.COMPS:FHP:1,2019-03-01T09:06:00Z,28.1530,-82.8010,10.0,0.81,299.3,2.05,'1111122,1111122,1111122' 
COMPS,ioos:station:USF.COMPS:FHP:1,2019-03-01T09:12:00Z,28.1530,-82.8010,10.0,1.11,311.66,2.25,'1111122,1111122,1111122' 
COMPS,ioos:station:USF.COMPS:FHP:1,2019-03-01T09:18:00Z,28.1530,-82.8010,10.0,1.5,316.99,2.74,'1111122,1111122,1111122' 
COMPS,ioos:station:USF.COMPS:FHP:1,2019-03-01T09:24:00Z,28.1530,-82.8010,10.0,2.02,315.48,2.74,'1111122,1111122,1111122' 
COMPS,ioos:station:USF.COMPS:FHP:1,2019-03-01T09:30:00Z,28.1530,-82.8010,10.0,1.52,315.72,2.45,'1111122,1111122,1111122' 
COMPS,ioos:station:USF.COMPS:FHP:1,2019-03-01T09:36:00Z,28.1530,-82.8010,10.0,2.12,318.17,2.74,'1111122,1111122,1111122' 
COMPS,ioos:station:USF.COMPS:FHP:1,2019-03-01T09:42:00Z,28.1530,-82.8010,10.0,1.43,322.64,2.15,'1111122,1111122,1111122' 
COMPS,ioos:station:USF.COMPS:FHP:1,2019-03-01T09:48:00Z,28.1530,-82.8010,10.0,1.08,321.78,2.15,'1111122,1111122,1111122' 
COMPS,ioos:station:USF.COMPS:FHP:1,2019-03-01T09:54:00Z,28.1530,-82.8010,10.0,1.66,316.74,2.45,'1111122,1111122,1111122' 
COMPS,ioos:station:USF.COMPS:FHP:1,2019-03-01T10:00:00Z,28.1530,-82.8010,10.0,1.88,327.26,2.35,'1111122,1111122,1111122' 
COMPS,ioos:station:USF.COMPS:FHP:1,2019-03-01T10:06:00Z,28.1530,-82.8010,10.0,1.54,329.78,2.15,'1111122,1111122,1111122' 
COMPS,ioos:station:USF.COMPS:FHP:1,2019-03-01T10:12:00Z,28.1530,-82.8010,10.0,1.76,330.93,2.25,'1111122,1111122,1111122' 
COMPS,ioos:station:USF.COMPS:FHP:1,2019-03-01T10:18:00Z,28.1530,-82.8010,10.0,1.57,350.55,2.45,'1111122,1111122,1111122' 
COMPS,ioos:station:USF.COMPS:FHP:1,2019-03-01T10:24:00Z,28.1530,-82.8010,10.0,0.43,356.62,1.46,'1111122,1111122,1111122' 
COMPS,ioos:station:USF.COMPS:FHP:1,2019-03-01T10:30:00Z,28.1530,-82.8010,10.0,0.28,32.8,1.66,'1111122,1111122,1111122' 
COMPS,ioos:station:USF.COMPS:FHP:1,2019-03-01T10:36:00Z,28.1530,-82.8010,10.0,1.6,81.38,2.25,'1111122,1111122,1111122' 
COMPS,ioos:station:USF.COMPS:FHP:1,2019-03-01T10:42:00Z,28.1530,-82.8010,10.0,1.84,86.74,2.25,'1111122,1111122,1111122' 
COMPS,ioos:station:USF.COMPS:FHP:1,2019-03-01T10:48:00Z,28.1530,-82.8010,10.0,1.1,84.52,1.56,'1111122,1111122,1111122' 
COMPS,ioos:station:USF.COMPS:FHP:1,2019-03-01T10:54:00Z,28.1530,-82.8010,10.0,1.3,80.79,1.86,'1111122,1111122,1111122' 
COMPS,ioos:station:USF.COMPS:FHP:1,2019-03-01T11:00:00Z,28.1530,-82.8010,10.0,1.85,78.93,2.84,'1111122,1111122,1111122' 
COMPS,ioos:station:USF.COMPS:FHP:1,2019-03-01T11:06:00Z,28.1530,-82.8010,10.0,2.15,102.65,2.35,'1111122,1111122,1111122' 
COMPS,ioos:station:USF.COMPS:FHP:1,2019-03-01T11:12:00Z,28.1530,-82.8010,10.0,1.7,101.35,2.54,'1111122,1111122,1111122' 
COMPS,ioos:station:USF.COMPS:FHP:1,2019-03-01T11:18:00Z,28.1530,-82.8010,10.0,0.61,97.84,1.76,'1111122,1111122,1111122' 
COMPS,ioos:station:USF.COMPS:FHP:1,2019-03-01T11:24:00Z,28.1530,-82.8010,10.0,1.78,85.36,2.45,'1111122,1111122,1111122' 
COMPS,ioos:station:USF.COMPS:FHP:1,2019-03-01T11:30:00Z,28.1530,-82.8010,10.0,1.62,109.55,2.54,'1111122,1111122,1111122' 
COMPS,ioos:station:USF.COMPS:FHP:1,2019-03-01T11:36:00Z,28.1530,-82.8010,10.0,1.75,108.57,2.84,'1111122,1111122,1111122' 
COMPS,ioos:station:USF.COMPS:FHP:1,2019-03-01T11:42:00Z,28.1530,-82.8010,10.0,2.16,98.66,3.13,'1111122,1111122,1111122' 
COMPS,ioos:station:USF.COMPS:FHP:1,2019-03-01T11:48:00Z,28.1530,-82.8010,10.0,1.9,91.17,2.84,'1111122,1111122,1111122' 
COMPS,ioos:station:USF.COMPS:FHP:1,2019-03-01T11:54:00Z,28.1530,-82.8010,10.0,0.1,98.57,0.49,'1111122,1111122,1111122' 
COMPS,ioos:station:USF.COMPS:FHP:1,2019-03-01T12:00:00Z,28.1530,-82.8010,10.0,0.09,83.56,0.09,'1111122,1111122,1111122' 
COMPS,ioos:station:USF.COMPS:FHP:1,2019-03-01T12:06:00Z,28.1530,-82.8010,10.0,0.09,65.75,0.09,'1111122,1111122,1111122' 
COMPS,ioos:station:USF.COMPS:FHP:1,2019-03-01T12:12:00Z,28.1530,-82.8010,10.0,0.09,48.15,0.09,'1111122,1111122,1111122' 
COMPS,ioos:station:USF.COMPS:FHP:1,2019-03-01T12:18:00Z,28.1530,-82.8010,10.0,0.09,80.24,0.09,'1111122,1111122,1111122' 
COMPS,ioos:station:USF.COMPS:FHP:1,2019-03-01T12:24:00Z,28.1530,-82.8010,10.0,0.09,80.57,0.09,'1111122,1111122,1111122' 
COMPS,ioos:station:USF.COMPS:FHP:1,2019-03-01T12:30:00Z,28.1530,-82.8010,10.0,0.09,96.14,0.09,'1111122,1111122,1111122' 
COMPS,ioos:station:USF.COMPS:FHP:1,2019-03-01T12:36:00Z,28.1530,-82.8010,10.0,0.09,108.45,0.09,'1111122,1111122,1111122' 
COMPS,ioos:station:USF.COMPS:FHP:1,2019-03-01T12:42:00Z,28.1530,-82.8010,10.0,0.09,98.44,0.09,'1111122,1111122,1111122' 
COMPS,ioos:station:USF.COMPS:FHP:1,2019-03-01T12:48:00Z,28.1530,-82.8010,10.0,0.09,105.34,0.09,'1111122,1111122,1111122' 
COMPS,ioos:station:USF.COMPS:FHP:1,2019-03-01T12:54:00Z,28.1530,-82.8010,10.0,0.09,109.55,0.09,'1111122,1111122,1111122' 
COMPS,ioos:station:USF.COMPS:FHP:1,2019-03-01T13:00:00Z,28.1530,-82.8010,10.0,0.09,119.49,0.09,'1111122,1111122,1111122' 
COMPS,ioos:station:USF.COMPS:FHP:1,2019-03-01T13:06:00Z,28.1530,-82.8010,10.0,1.2,107.32,2.15,'1111122,1111122,1111122' 
COMPS,ioos:station:USF.COMPS:FHP:1,2019-03-01T13:12:00Z,28.1530,-82.8010,10.0,0.81,98.95,1.95,'1111122,1111122,1111122' 
COMPS,ioos:station:USF.COMPS:FHP:1,2019-03-01T13:18:00Z,28.1530,-82.8010,10.0,0.35,88.73,1.46,'1111122,1111122,1111122' 
COMPS,ioos:station:USF.COMPS:FHP:1,2019-03-01T13:24:00Z,28.1530,-82.8010,10.0,0.09,76.57,0.09,'1111122,1111122,1111122' 
COMPS,ioos:station:USF.COMPS:FHP:1,2019-03-01T13:30:00Z,28.1530,-82.8010,10.0,0.39,70.43,2.15,'1111122,1111122,1111122' 
COMPS,ioos:station:USF.COMPS:FHP:1,2019-03-01T13:36:00Z,28.1530,-82.8010,10.0,0.53,86.44,1.56,'1111122,1111122,1111122' 
COMPS,ioos:station:USF.COMPS:FHP:1,2019-03-01T13:42:00Z,28.1530,-82.8010,10.0,0.16,102.11,1.17,'1111122,1111122,1111122' 
COMPS,ioos:station:USF.COMPS:FHP:1,2019-03-01T13:48:00Z,28.1530,-82.8010,10.0,0.71,119.14,1.56,'1111122,1111122,1111122' 
COMPS,ioos:station:USF.COMPS:FHP:1,2019-03-01T13:54:00Z,28.1530,-82.8010,10.0,0.81,128.98,2.15,'1111122,1111122,1111122' 
COMPS,ioos:station:USF.COMPS:FHP:1,2019-03-01T14:00:00Z,28.1530,-82.8010,10.0,0.9,132.27,1.95,'1111122,1111122,1111122' 
COMPS,ioos:station:USF.COMPS:FHP:1,2019-03-01T14:06:00Z,28.1530,-82.8010,10.0,1.33,140.09,2.05,'1111122,1111122,1111122' 
COMPS,ioos:station:USF.COMPS:FHP:1,2019-03-01T14:12:00Z,28.1530,-82.8010,10.0,1.88,148.58,2.84,'1111122,1111122,1111122' 
COMPS,ioos:station:USF.COMPS:FHP:1,2019-03-01T14:18:00Z,28.1530,-82.8010,10.0,2.18,139.72,2.74,'1111122,1111122,1111122' 
COMPS,ioos:station:USF.COMPS:FHP:1,2019-03-01T14:24:00Z,28.1530,-82.8010,10.0,2.31,131.96,2.93,'1111122,1111122,1111122' 
COMPS,ioos:station:USF.COMPS:FHP:1,2019-03-01T14:30:00Z,28.1530,-82.8010,10.0,2.35,140.54,3.23,'1111122,1111122,1111122' 
COMPS,ioos:station:USF.COMPS:FHP:1,2019-03-01T14:36:00Z,28.1530,-82.8010,10.0,2.41,144.19,3.42,'1111122,1111122,1111122' 
COMPS,ioos:station:USF.COMPS:FHP:1,2019-03-01T14:42:00Z,28.1530,-82.8010,10.0,2.13,149.98,2.64,'1111122,1111122,1111122' 
COMPS,ioos:station:USF.COMPS:FHP:1,2019-03-01T14:48:00Z,28.1530,-82.8010,10.0,2.32,136.27,3.13,'1111122,1111122,1111122' 
COMPS,ioos:station:USF.COMPS:FHP:1,2019-03-01T14:54:00Z,28.1530,-82.8010,10.0,2.78,132.25,3.52,'1111122,1111122,1111122' 
COMPS,ioos:station:USF.COMPS:FHP:1,2019-03-01T15:00:00Z,28.1530,-82.8010,10.0,3.16,128.1,3.62,'1111122,1111122,1111122' 
COMPS,ioos:station:USF.COMPS:FHP:1,2019-03-01T15:06:00Z,28.1530,-82.8010,10.0,3.7,136.95,4.5,'1111122,1111122,1111122' 
COMPS,ioos:station:USF.COMPS:FHP:1,2019-03-01T15:12:00Z,28.1530,-82.8010,10.0,3.67,140.36,4.5,'1111122,1111122,1111122' 
COMPS,ioos:station:USF.COMPS:FHP:1,2019-03-01T15:18:00Z,28.1530,-82.8010,10.0,2.83,150.79,3.72,'1111122,1111122,1111122' 
COMPS,ioos:station:USF.COMPS:FHP:1,2019-03-01T15:24:00Z,28.1530,-82.8010,10.0,2.52,165.61,3.42,'1111122,1111122,1111122' 
COMPS,ioos:station:USF.COMPS:FHP:1,2019-03-01T15:30:00Z,28.1530,-82.8010,10.0,2.55,163.75,3.72,'1111122,1111122,1111122' 
COMPS,ioos:station:USF.COMPS:FHP:1,2019-03-01T15:36:00Z,28.1530,-82.8010,10.0,2.34,161.37,3.03,'1111122,1111122,1111122' 
COMPS,ioos:station:USF.COMPS:FHP:1,2019-03-01T15:42:00Z,28.1530,-82.8010,10.0,1.23,170.4,1.95,'1111122,1111122,1111122' 
COMPS,ioos:station:USF.COMPS:FHP:1,2019-03-01T15:48:00Z,28.1530,-82.8010,10.0,0.68,183.24,1.27,'1111122,1111122,1111122' 
COMPS,ioos:station:USF.COMPS:FHP:1,2019-03-01T15:54:00Z,28.1530,-82.8010,10.0,0.81,195.72,1.37,'1111122,1111122,1111122' 
COMPS,ioos:station:USF.COMPS:FHP:1,2019-03-01T16:00:00Z,28.1530,-82.8010,10.0,0.92,202.86,1.37,'1111122,1111122,1111122' 
COMPS,ioos:station:USF.COMPS:FHP:1,2019-03-01T16:06:00Z,28.1530,-82.8010,10.0,0.39,212.46,0.97,'1111122,1111122,1111122' 
COMPS,ioos:station:USF.COMPS:FHP:1,2019-03-01T16:12:00Z,28.1530,-82.8010,10.0,0.74,227.32,1.37,'1111122,1111122,1111122' 
COMPS,ioos:station:USF.COMPS:FHP:1,2019-03-01T16:18:00Z,28.1530,-82.8010,10.0,1.57,230.49,1.86,'1111122,1111122,1111122' 
COMPS,ioos:station:USF.COMPS:FHP:1,2019-03-01T16:24:00Z,28.1530,-82.8010,10.0,1.63,235.24,1.76,'1111122,1111122,1111122' 
COMPS,ioos:station:USF.COMPS:FHP:1,2019-03-01T16:30:00Z,28.1530,-82.8010,10.0,1.41,237.13,1.86,'1111122,1111122,1111122' 
COMPS,ioos:station:USF.COMPS:FHP:1,2019-03-01T16:36:00Z,28.1530,-82.8010,10.0,1.43,229.18,1.95,'1111122,1111122,1111122' 
COMPS,ioos:station:USF.COMPS:FHP:1,2019-03-01T16:42:00Z,28.1530,-82.8010,10.0,1.52,237.12,1.76,'1111122,1111122,1111122' 
COMPS,ioos:station:USF.COMPS:FHP:1,2019-03-01T16:48:00Z,28.1530,-82.8010,10.0,1.66,246.48,1.95,'1111122,1111122,1111122' 
COMPS,ioos:station:USF.COMPS:FHP:1,2019-03-01T16:54:00Z,28.1530,-82.8010,10.0,1.96,244.11,2.35,'1111122,1111122,1111122' 
COMPS,ioos:station:USF.COMPS:FHP:1,2019-03-01T17:00:00Z,28.1530,-82.8010,10.0,1.64,244.49,2.15,'1111122,1111122,1111122' 
COMPS,ioos:station:USF.COMPS:FHP:1,2019-03-01T17:06:00Z,28.1530,-82.8010,10.0,1.74,251.75,2.15,'1111122,1111122,1111122' 
COMPS,ioos:station:USF.COMPS:FHP:1,2019-03-01T17:12:00Z,28.1530,-82.8010,10.0,2.06,244.61,2.45,'1111122,1111122,1111122' 
COMPS,ioos:station:USF.COMPS:FHP:1,2019-03-01T17:18:00Z,28.1530,-82.8010,10.0,2.08,250.27,2.45,'1111122,1111122,1111122' 
COMPS,ioos:station:USF.COMPS:FHP:1,2019-03-01T17:24:00Z,28.1530,-82.8010,10.0,2.32,259.03,2.84,'1111122,1111122,1111122' 
COMPS,ioos:station:USF.COMPS:FHP:1,2019-03-01T17:30:00Z,28.1530,-82.8010,10.0,1.97,259.38,3.03,'1111122,1111122,1111122' 
COMPS,ioos:station:USF.COMPS:FHP:1,2019-03-01T17:36:00Z,28.1530,-82.8010,10.0,2.95,256.17,3.33,'1111122,1111122,1111122' 
COMPS,ioos:station:USF.COMPS:FHP:1,2019-03-01T17:42:00Z,28.1530,-82.8010,10.0,2.99,253.29,3.72,'1111122,1111122,1111122' 
COMPS,ioos:station:USF.COMPS:FHP:1,2019-03-01T17:48:00Z,28.1530,-82.8010,10.0,4.17,245.46,4.9,'1111122,1111122,1111122' 
COMPS,ioos:station:USF.COMPS:FHP:1,2019-03-01T17:54:00Z,28.1530,-82.8010,10.0,4.76,240.25,5.68,'1111122,1111122,1111122' 
COMPS,ioos:station:USF.COMPS:FHP:1,2019-03-01T18:00:00Z,28.1530,-82.8010,10.0,4.88,239.48,5.68,'1111122,1111122,1111122' 
COMPS,ioos:station:USF.COMPS:FHP:1,2019-03-01T18:06:00Z,28.1530,-82.8010,10.0,5.01,241.39,5.78,'1111122,1111122,1111122' 
COMPS,ioos:station:USF.COMPS:FHP:1,2019-03-01T18:12:00Z,28.1530,-82.8010,10.0,5.34,241.75,5.87,'1111122,1111122,1111122' 
COMPS,ioos:station:USF.COMPS:FHP:1,2019-03-01T18:18:00Z,28.1530,-82.8010,10.0,5.26,232.16,5.97,'1111122,1111122,1111122' 
COMPS,ioos:station:USF.COMPS:FHP:1,2019-03-01T18:24:00Z,28.1530,-82.8010,10.0,5.3,223.52,5.87,'1111122,1111122,1111122' 
COMPS,ioos:station:USF.COMPS:FHP:1,2019-03-01T18:30:00Z,28.1530,-82.8010,10.0,5.61,227.39,6.07,'1111122,1111122,1111122' 
COMPS,ioos:station:USF.COMPS:FHP:1,2019-03-01T18:36:00Z,28.1530,-82.8010,10.0,5.75,225.45,6.46,'1111122,1111122,1111122' 
COMPS,ioos:station:USF.COMPS:FHP:1,2019-03-01T18:42:00Z,28.1530,-82.8010,10.0,5.15,225.99,5.97,'1111122,1111122,1111122' 
COMPS,ioos:station:USF.COMPS:FHP:1,2019-03-01T18:48:00Z,28.1530,-82.8010,10.0,5.51,224.88,6.07,'1111122,1111122,1111122' 
COMPS,ioos:station:USF.COMPS:FHP:1,2019-03-01T18:54:00Z,28.1530,-82.8010,10.0,5.12,233.18,6.07,'1111122,1111122,1111122' 
COMPS,ioos:station:USF.COMPS:FHP:1,2019-03-01T19:00:00Z,28.1530,-82.8010,10.0,4.91,231.75,5.87,'1111122,1111122,1111122' 
COMPS,ioos:station:USF.COMPS:FHP:1,2019-03-01T19:06:00Z,28.1530,-82.8010,10.0,4.88,237.94,5.58,'1111122,1111122,1111122' 
COMPS,ioos:station:USF.COMPS:FHP:1,2019-03-01T19:12:00Z,28.1530,-82.8010,10.0,4.77,249.35,5.58,'1111122,1111122,1111122' 
COMPS,ioos:station:USF.COMPS:FHP:1,2019-03-01T19:18:00Z,28.1530,-82.8010,10.0,4.61,258.93,5.48,'1111122,1111122,1111122' 
COMPS,ioos:station:USF.COMPS:FHP:1,2019-03-01T19:24:00Z,28.1530,-82.8010,10.0,4.81,256.64,5.29,'1111122,1111122,1111122' 
COMPS,ioos:station:USF.COMPS:FHP:1,2019-03-01T19:30:00Z,28.1530,-82.8010,10.0,4.69,251.79,5.68,'1111122,1111122,1111122' 